When you browse on this site, cookies collect data to enhance your experience and personalize the content and advertising you see.
Visit our Privacy Policy to learn more. By continuing to use the site, you agree to this use of cookies and data.
  • In Sweden
  • List of Countries
  • For 7 days
  • Water Temperature
  • Weather Map
  • Weather Widgets
  • user-avatar
    Login

    Hourly Weather Teplik

    Today, 21 September, Saturday

    Time Temperature Precipitation Wind Pressure Humidity
    00:00 +4°C° 0 mm 4 mps 745 mmHg 81%
    01:00 +4°C° 0 mm 4 mps 746 mmHg 81%
    02:00 +3°C° 0 mm 4 mps 746 mmHg 81%
    03:00 +3°C° 0 mm 4 mps 746 mmHg 83%
    04:00 +3°C° 0 mm 4 mps 746 mmHg 85%
    05:00 +1°C° 0 mm 4 mps 746 mmHg 87%
    06:00 +3°C° 0 mm 4 mps 747 mmHg 82%
    07:00 +4°C° 0 mm 4 mps 747 mmHg 76%
    08:00 +5°C° 0 mm 4 mps 747 mmHg 70%
    09:00 +7°C° 0 mm 5 mps 747 mmHg 59%
    10:00 +9°C° 0 mm 5 mps 748 mmHg 48%
    11:00 +12°C° 0 mm 5 mps 748 mmHg 37%
    12:00 +12°C° 0 mm 5 mps 747 mmHg 35%
    13:00 +13°C° 0 mm 5 mps 747 mmHg 33%
    14:00 +14°C° 0 mm 5 mps 747 mmHg 31%
    15:00 +14°C° 0 mm 5 mps 747 mmHg 34%
    16:00 +14°C° 0 mm 5 mps 746 mmHg 36%
    17:00 +13°C° 0 mm 4 mps 746 mmHg 39%
    18:00 +12°C° 0 mm 4 mps 746 mmHg 48%
    19:00 +11°C° 0 mm 4 mps 746 mmHg 58%
    20:00 +8°C° 0 mm 4 mps 746 mmHg 68%
    21:00 +10°C° 0 mm 4 mps 746 mmHg 68%
    22:00 +10°C° 0 mm 4 mps 745 mmHg 69%
    23:00 +10°C° 0 mm 5 mps 745 mmHg 70%

    Tomorrow, 22 September, Sunday

    Time Temperature Precipitation Wind Pressure Humidity
    00:00 +10°C° 0 mm 5 mps 745 mmHg 71%
    01:00 +10°C° 0 mm 5 mps 745 mmHg 72%
    02:00 +10°C° 0 mm 5 mps 745 mmHg 73%
    03:00 +10°C° 0 mm 5 mps 745 mmHg 74%
    04:00 +10°C° 0 mm 5 mps 744 mmHg 74%
    05:00 +9°C° 0 mm 6 mps 744 mmHg 75%
    06:00 +10°C° 0 mm 6 mps 744 mmHg 70%
    07:00 +11°C° 0 mm 6 mps 744 mmHg 66%
    08:00 +12°C° 0 mm 7 mps 744 mmHg 61%
    09:00 +15°C° 0 mm 7 mps 744 mmHg 57%
    10:00 +16°C° 0 mm 7 mps 744 mmHg 53%
    11:00 +18°C° 0 mm 7 mps 744 mmHg 49%
    12:00 +20°C° 0 mm 7 mps 744 mmHg 47%
    13:00 +21°C° 0 mm 6 mps 743 mmHg 45%
    14:00 +21°C° 0 mm 6 mps 743 mmHg 42%
    15:00 +21°C° 0 mm 6 mps 743 mmHg 44%
    16:00 +21°C° 0 mm 5 mps 742 mmHg 45%
    17:00 +20°C° 0 mm 4 mps 742 mmHg 47%
    18:00 +19°C° 0 mm 4 mps 742 mmHg 53%
    19:00 +17°C° 0 mm 3 mps 742 mmHg 59%
    20:00 +14°C° 0 mm 3 mps 742 mmHg 65%
    21:00 +13°C° 0 mm 3 mps 742 mmHg 68%
    22:00 +13°C° 0 mm 3 mps 742 mmHg 71%
    23:00 +12°C° 0 mm 3 mps 742 mmHg 73%

    Day after tomorrow, 23 September, Monday

    Time Temperature Precipitation Wind Pressure Humidity
    00:00 +12°C° 0 mm 3 mps 742 mmHg 76%
    01:00 +12°C° 0 mm 2 mps 742 mmHg 79%
    02:00 +12°C° 0 mm 2 mps 743 mmHg 82%
    03:00 +10°C° 0 mm 2 mps 743 mmHg 85%
    04:00 +10°C° 0 mm 2 mps 743 mmHg 89%
    05:00 +9°C° 0 mm 2 mps 743 mmHg 92%
    06:00 +10°C° 0 mm 2 mps 743 mmHg 88%
    07:00 +11°C° 0 mm 3 mps 743 mmHg 83%
    08:00 +12°C° 0 mm 3 mps 744 mmHg 79%
    09:00 +14°C° 0 mm 3 mps 744 mmHg 72%
    10:00 +17°C° 0 mm 3 mps 744 mmHg 65%
    11:00 +18°C° 0 mm 3 mps 744 mmHg 58%
    12:00 +18°C° 0 mm 3 mps 744 mmHg 56%
    13:00 +19°C° 0 mm 4 mps 744 mmHg 55%
    14:00 +19°C° 0 mm 4 mps 743 mmHg 54%
    15:00 +18°C° 0 mm 4 mps 743 mmHg 55%
    16:00 +18°C° 0 mm 4 mps 743 mmHg 55%
    17:00 +18°C° 0 mm 4 mps 742 mmHg 56%
    18:00 +15°C° 0 mm 4 mps 742 mmHg 59%
    19:00 +14°C° 0 mm 4 mps 742 mmHg 62%
    20:00 +12°C° 0 mm 4 mps 742 mmHg 65%
    21:00 +12°C° 0 mm 4 mps 742 mmHg 65%
    22:00 +12°C° 0 mm 4 mps 742 mmHg 65%
    23:00 +11°C° 0 mm 4 mps 742 mmHg 65%

    24 September, Tuesday

    Time Temperature Precipitation Wind Pressure Humidity
    00:00 +11°C° 0 mm 4 mps 742 mmHg 66%
    01:00 +11°C° 0 mm 4 mps 742 mmHg 67%
    02:00 +10°C° 0 mm 4 mps 741 mmHg 68%
    03:00 +10°C° 0 mm 4 mps 741 mmHg 72%
    04:00 +10°C° 0 mm 3 mps 741 mmHg 75%
    05:00 +10°C° 0 mm 3 mps 741 mmHg 79%
    06:00 +11°C° 0 mm 3 mps 741 mmHg 76%
    07:00 +12°C° 0 mm 4 mps 741 mmHg 74%
    08:00 +14°C° 0 mm 4 mps 741 mmHg 71%
    09:00 +15°C° 0 mm 4 mps 741 mmHg 65%
    10:00 +18°C° 0 mm 4 mps 741 mmHg 59%
    11:00 +19°C° 0 mm 4 mps 741 mmHg 53%
    12:00 +20°C° 0 mm 4 mps 741 mmHg 49%
    13:00 +20°C° 0 mm 3 mps 740 mmHg 45%
    14:00 +21°C° 0 mm 3 mps 740 mmHg 41%
    15:00 +20°C° 0 mm 3 mps 740 mmHg 44%
    16:00 +19°C° 0 mm 2 mps 740 mmHg 48%
    17:00 +20°C° 0 mm 1 mps 739 mmHg 51%
    18:00 +19°C° 0 mm 1 mps 739 mmHg 56%
    19:00 +18°C° 0 mm 1 mps 739 mmHg 60%
    20:00 +18°C° 0 mm 1 mps 739 mmHg 64%
    21:00 +16°C° 0.1 mm 1 mps 739 mmHg 70%
    22:00 +16°C° 0.1 mm 1 mps 739 mmHg 76%
    23:00 +15°C° 0.1 mm 1 mps 739 mmHg 82%

    25 September, Wednesday

    Time Temperature Precipitation Wind Pressure Humidity
    00:00 +15°C° 0.2 mm 1 mps 739 mmHg 83%
    01:00 +15°C° 0.2 mm 1 mps 739 mmHg 84%
    02:00 +15°C° 0.2 mm 1 mps 739 mmHg 85%
    03:00 +15°C° 0.1 mm 1 mps 739 mmHg 85%
    04:00 +15°C° 0.1 mm 1 mps 739 mmHg 86%
    05:00 +14°C° 0.1 mm 1 mps 739 mmHg 87%
    06:00 +15°C° 0 mm 1 mps 739 mmHg 84%
    07:00 +16°C° 0 mm 2 mps 739 mmHg 81%
    08:00 +16°C° 0 mm 2 mps 739 mmHg 78%
    09:00 +17°C° 0 mm 2 mps 739 mmHg 71%
    10:00 +19°C° 0 mm 3 mps 739 mmHg 63%
    11:00 +20°C° 0 mm 3 mps 739 mmHg 55%
    12:00 +21°C° 0.1 mm 3 mps 739 mmHg 52%
    13:00 +21°C° 0.1 mm 3 mps 739 mmHg 48%
    14:00 +22°C° 0.1 mm 3 mps 739 mmHg 44%
    15:00 +21°C° 0 mm 3 mps 738 mmHg 46%
    16:00 +21°C° 0 mm 2 mps 738 mmHg 47%
    17:00 +20°C° 0 mm 2 mps 738 mmHg 49%
    18:00 +20°C° 0 mm 2 mps 738 mmHg 51%
    19:00 +19°C° 0 mm 2 mps 738 mmHg 53%
    20:00 +18°C° 0 mm 2 mps 738 mmHg 54%
    21:00 +18°C° 0 mm 2 mps 738 mmHg 56%
    22:00 +18°C° 0 mm 2 mps 737 mmHg 57%
    23:00 +17°C° 0 mm 2 mps 737 mmHg 58%

    26 September, Thursday

    Time Temperature Precipitation Wind Pressure Humidity
    00:00 +17°C° 0 mm 2 mps 737 mmHg 60%
    01:00 +17°C° 0 mm 2 mps 737 mmHg 62%
    02:00 +17°C° 0 mm 2 mps 737 mmHg 65%
    03:00 +16°C° 0.2 mm 2 mps 737 mmHg 69%
    04:00 +16°C° 0.2 mm 2 mps 737 mmHg 74%
    05:00 +16°C° 0.2 mm 2 mps 736 mmHg 79%
    06:00 +16°C° 0.9 mm 2 mps 736 mmHg 82%
    07:00 +16°C° 0.9 mm 3 mps 736 mmHg 86%
    08:00 +14°C° 0.9 mm 3 mps 736 mmHg 89%
    09:00 +16°C° 0.4 mm 3 mps 736 mmHg 84%
    10:00 +17°C° 0.4 mm 3 mps 736 mmHg 79%
    11:00 +18°C° 0.4 mm 3 mps 736 mmHg 74%
    12:00 +19°C° 0.5 mm 3 mps 736 mmHg 70%
    13:00 +20°C° 0.5 mm 3 mps 736 mmHg 66%
    14:00 +21°C° 0.5 mm 3 mps 735 mmHg 61%
    15:00 +20°C° 0.5 mm 3 mps 735 mmHg 65%
    16:00 +20°C° 0.5 mm 2 mps 735 mmHg 68%
    17:00 +19°C° 0.5 mm 2 mps 735 mmHg 71%
    18:00 +18°C° 0.1 mm 2 mps 735 mmHg 75%
    19:00 +17°C° 0.1 mm 2 mps 735 mmHg 78%
    20:00 +17°C° 0.1 mm 2 mps 735 mmHg 82%
    21:00 +18°C° 0.2 mm 1 mps 735 mmHg 84%
    22:00 +16°C° 0.2 mm 1 mps 735 mmHg 85%
    23:00 +16°C° 0.2 mm 1 mps 735 mmHg 87%
    Show more